Terug naar catalogus

CZ-6A DEB

ActiefPO
NORAD 60701·DEBRIS·🇨🇳 China

Gelanceerd Aug 6, 2024 vanaf Taiyuan Satellite Launch Center

Loading…

Volgende Passages (komende 24 uur)

TLE

VersSource: Space-Track

Epoch: Sep 14, 2026, 13:42 UTC

1 60701U 24140DE  26257.57107463  .00000781  00000-0  33881-3 0  9992
2 60701  89.3536 296.5678 0088310 311.3815  47.9806 14.21389282108389

Volg CZ-6A DEB in realtime met AllMySat

Download on the App Store